Location: Newark
(46.2358°N, 112.1211°W)
Time: 08:48:37
(UTC+00:00)

DELFI C3 - Pass Details

Date: 10 July 2020
Orbit: 533 x 552 km, 97.4° (Epoch: 12 August)

Event Time Altitude Azimuth Distance (km) Brightness Sun altitude
Rises 04:02:41 0° 195° (SSW) 2,713 ? -6.6°
Reaches altitude 10° 04:05:04 10° 208° (SSW) 1,826 ? -6.9°
Maximum altitude 04:08:24 26° 265° (W) 1,117 ? -7.3°
Drops below altitude 10° 04:11:46 10° 323° (NW) 1,841 ? -7.7°
Sets 04:14:11 0° 337° (NNW) 2,741 ? -8.0°
